Flag Weather past 2 weeks in Beirut, Lebanon

Now
66 °F

Sprinkles. Partly sunny.


Feels Like: 66 °F
Forecast: 65 / 72 °F
Wind: 9 mph from South

Location: Beirut Airport

Current Time: Nov 1, 2014 at 10:29:51 AM

Latest Report: Nov 1, 2014 at 9:00 AM


Visibility: 5 mi

Pressure: 30.01 "Hg

Humidity: 78%

Dew point: 59 °F

Location of BeirutLocation

Historic Weather in Beirut — Graph

°F

Beirut temperature yesterday

Maximum temperature yesterday: 75 °F (at 12:00 PM)
Minimum temperature yesterday: 64 °F (at 6:00 AM)
Average temperature yesterday: 69 °F

Past Weeks' High & Low Weather Summary

 TemperatureHumidityPressure
High82 °F (Oct 25, 2:00 PM)94% (Oct 19, 1:00 PM)30.12 "Hg (Oct 19, 1:00 PM)
Low63 °F (Nov 1, 12:00 AM)33% (Oct 20, 2:00 PM)29.77 "Hg (Oct 19, 3:00 PM)
Average73 °F58%30.00 "Hg
* Reported Oct 17 10:00 AM — Nov 1 9:00 AM, Beirut, Weather by CustomWeather, © 2014

Note: Actual official high and low records may vary slightly from our data, if they occured in-between our weather recording intervals... More about our weather records

Advertising

Beirut weather history for previous 24 hours

 ConditionsComfort  
Time TempWeatherWind HumidityBarometerVisibility
9:00 AM
Nov 1
66 °FSprinkles. Partly sunny.9 mph78%30.01 "Hg5 mi
8:00 AM64 °FPartly sunny.9 mph78%29.98 "Hg5 mi
7:00 AM64 °FPartly sunny.7 mph73%29.95 "Hg5 mi
6:00 AM63 °FRain. Partly sunny.8 mph77%29.95 "Hg4 mi
5:00 AM63 °FThunderstorms. Passing clouds.6 mph77%29.95 "Hg4 mi
4:00 AM63 °FThunderstorms. Passing clouds.8 mph83%29.95 "Hg4 mi
2:00 AM66 °FThunderstorms. Passing clouds.7 mph68%29.95 "Hg4 mi
1:00 AM66 °FThunderstorms. Passing clouds.6 mph68%29.95 "Hg4 mi
12:00 AM63 °FThunderstorms. Passing clouds.14 mph83%29.98 "Hg4 mi
11:00 PM
Oct 31
64 °FRain. Passing clouds.5 mph78%29.95 "Hg4 mi
10:00 PM66 °FRain showers. Passing clouds.9 mph73%29.98 "Hg4 mi
9:00 PM70 °FPassing clouds.5 mph57%29.95 "Hg5 mi
8:00 PM66 °FPassing clouds.8 mph68%29.95 "Hg5 mi
7:00 PM70 °FPassing clouds.5 mph57%29.95 "Hg5 mi
6:00 PM68 °FPassing clouds.6 mph69%29.95 "Hg5 mi
5:00 PM70 °FRain. Passing clouds.15 mph73%29.92 "Hg5 mi
4:00 PM73 °FScattered clouds.9 mph61%29.92 "Hg5 mi
3:00 PM72 °FScattered clouds.7 mph61%29.92 "Hg5 mi
2:00 PM70 °FLight rain. Broken clouds.10 mph73%29.95 "Hg5 mi
1:00 PM73 °FRain. Scattered clouds.8 mph50%29.92 "Hg5 mi
12:00 PM75 °FScattered clouds.5 mph44%29.92 "Hg5 mi
11:00 AM70 °FRain. Partly sunny.6 mph60%29.92 "Hg4 mi
10:00 AM72 °FRain. Partly sunny.8 mph61%29.95 "Hg3 mi
Weather by CustomWeather, © 2014

See weather overviewHow to use our weather pages